Theta_e
315 314 314 313 314 313 315 313 314 314 314 313 313 312 311 311 308 305 306 309 310 314 317 316 319 320 319 325 328 328 328 324 322 327 329 331 333 320 314 311 311 311 310 309 307 307 307 308 309 311 313 315 318 318 318 318 316 314 315 315 314 313 313 314 314 317 320 321 319 316 315 315 314 311
314 313 313 314 313 313 314 313 313 314 314 312 313 312 313 312 309 308 306 307 312 312 316 315 314 321 322 323 324 324 323 317 320 322 323 326 329 318 312 311 310 310 309 308 307 306 307 307 309 310 312 313 314 316 315 316 315 315 315 314 314 314 315 315 316 318 320 319 317 314 314 314 313 312
313 312 311 312 312 312 314 314 314 314 313 313 313 312 313 312 312 311 309 306 311 315 312 315 318 317 317 317 319 320 321 319 319 322 324 323 318 316 323 313 312 312 311 309 307 306 307 306 306 308 310 312 312 313 314 317 316 315 314 311 312 315 316 316 316 319 320 319 319 316 314 313 313 313
312 312 311 310 310 310 310 312 312 311 312 313 311 312 312 312 312 311 309 308 308 313 313 314 315 315 317 317 316 317 317 317 315 322 323 324 317 324 325 315 313 312 310 310 309 308 308 307 306 306 307 308 310 311 312 315 315 314 312 312 312 314 316 316 316 319 319 319 318 316 313 313 314 312
311 309 309 309 310 311 310 311 311 310 310 310 310 311 311 310 311 310 309 307 308 312 315 315 314 316 317 314 315 315 317 319 322 319 323 325 326 325 325 325 313 310 310 308 307 307 306 306 306 305 304 306 306 307 309 311 311 312 312 310 309 311 315 316 316 316 319 318 317 314 314 313 312 311
310 311 309 308 309 309 307 310 308 309 308 308 308 309 310 308 310 312 309 307 306 306 311 311 314 313 315 311 315 316 316 317 318 316 317 319 320 319 320 320 326 308 310 307 306 306 306 305 305 305 304 303 304 306 306 307 308 310 310 309 308 310 313 314 315 315 317 318 317 315 313 312 311 312
309 309 309 309 310 310 309 309 310 311 309 309 308 309 309 308 309 309 309 306 305 305 306 310 309 310 312 313 312 313 314 315 314 313 314 315 317 318 320 321 323 309 307 306 306 305 305 305 304 304 304 304 303 303 304 305 306 306 307 307 307 308 309 308 309 310 311 315 316 314 313 311 311 312
308 308 307 308 308 309 308 309 308 308 309 309 308 309 309 310 309 310 310 309 307 306 304 308 307 309 309 310 311 312 312 312 312 313 314 315 315 316 316 319 320 313 305 305 306 306 306 306 305 304 304 304 304 303 304 304 305 305 306 306 305 305 306 306 306 307 309 313 316 315 312 311 312 313
308 306 307 306 307 307 307 308 308 308 308 307 307 307 307 306 307 309 309 309 309 307 306 307 309 310 309 309 310 310 309 309 310 312 312 313 314 316 318 319 318 311 307 307 307 307 307 307 306 305 304 304 303 303 303 303 304 304 305 305 305 305 305 305 305 305 306 308 310 314 313 311 313 315
306 306 305 305 306 306 306 306 307 308 307 307 307 307 306 306 307 307 308 308 307 307 306 307 307 309 307 308 309 310 310 309 308 309 311 312 312 313 314 316 316 319 320 326 327 311 307 306 304 305 305 304 303 303 303 303 303 304 305 305 305 305 304 304 304 304 304 305 306 307 311 311 314 316
305 304 304 305 305 304 305 305 305 306 307 307 307 307 307 307 307 306 306 306 306 305 305 305 306 306 308 308 306 309 310 309 308 307 308 309 311 315 316 317 319 320 322 318 312 315 316 311 313 309 304 304 303 303 303 302 303 303 303 304 304 304 304 304 304 304 304 304 304 305 305 308 313 315
304 304 304 304 303 303 304 304 304 304 304 304 305 306 307 307 306 305 305 305 304 304 304 303 304 305 305 306 308 308 308 308 308 309 309 307 309 310 313 314 314 317 319 320 322 316 314 311 310 303 304 303 303 302 302 302 304 303 303 303 303 303 303 303 304 304 304 304 303 303 304 304 306 312
304 304 304 303 303 302 299 299 298 298 299 299 299 302 303 303 304 305 305 304 303 303 303 303 305 304 304 305 306 305 306 305 306 310 310 308 308 308 309 311 314 314 315 317 318 319 325 323 325 324 325 325 312 310 304 308 303 303 302 302 302 303 303 303 303 304 304 303 303 303 303 303 303 304
303 303 303 304 299 300 299 298 296 294 295 296 299 300 301 301 302 302 302 302 303 303 301 302 302 302 302 303 305 305 307 308 309 307 308 307 308 308 307 309 311 313 313 313 313 315 318 319 321 323 322 326 326 327 318 320 316 306 301 301 302 302 302 303 303 303 303 303 303 303 302 302 302 301
302 303 302 303 302 302 300 301 294 293 293 294 294 294 295 296 298 298 298 299 301 300 301 302 302 302 302 303 305 305 305 306 306 306 307 306 306 305 303 303 309 314 315 315 315 317 321 321 319 320 322 324 325 326 326 311 307 305 302 301 301 301 302 302 302 302 303 303 303 303 302 302 302 301
301 302 302 302 303 303 302 300 299 298 294 293 293 292 292 292 292 293 297 297 298 300 299 300 301 302 301 302 304 304 305 305 305 306 306 305 305 304 304 304 304 311 315 311 311 312 318 321 320 319 321 323 325 325 317 307 303 303 302 301 301 301 301 301 302 302 302 302 302 301 301 301 300 299
301 301 301 301 301 302 301 299 301 301 302 296 292 292 293 292 292 291 290 291 297 298 298 298 299 300 302 302 303 305 305 306 303 303 302 303 303 304 303 304 305 308 312 311 310 310 314 316 315 317 319 323 325 325 310 307 305 301 301 301 300 300 300 300 301 301 300 301 301 301 300 300 299 298
301 301 301 300 300 301 301 301 301 301 301 301 301 301 301 301 299 293 290 290 291 294 297 297 296 299 301 299 302 304 305 303 301 301 301 302 301 301 302 305 306 308 309 306 306 306 309 314 315 314 317 320 323 323 316 305 305 302 301 301 300 300 300 300 300 300 300 300 300 300 299 299 298 297
301 301 301 301 300 300 300 300 299 298 298 299 299 299 299 300 301 302 302 301 300 298 298 298 298 299 299 300 301 302 302 302 302 302 302 301 302 301 303 303 304 304 306 307 306 302 306 312 311 312 315 318 319 322 305 301 301 300 300 299 299 299 299 299 299 299 300 300 299 299 298 297 296 296
301 301 301 301 300 300 299 296 292 294 297 297 297 297 298 299 300 300 298 296 296 299 300 301 300 301 301 295 297 297 297 298 300 300 301 302 300 298 297 296 300 300 304 306 304 303 304 309 309 310 314 315 316 318 321 299 302 300 300 299 299 298 298 298 299 299 299 298 298 298 297 296 295 294
301 301 301 301 299 298 298 294 290 290 291 296 296 296 296 297 297 298 299 296 293 292 292 291 291 291 290 291 292 292 291 295 296 297 296 296 298 296 295 297 298 299 303 305 306 304 303 307 308 308 311 313 313 315 318 314 298 298 298 298 298 298 298 298 298 298 298 298 297 297 296 295 294 293
301 301 299 298 298 298 298 292 289 289 292 295 295 295 294 294 295 296 298 299 299 293 291 291 291 291 291 291 291 291 291 291 293 295 293 296 297 295 295 295 297 300 302 303 307 304 303 307 309 307 310 312 313 314 315 316 308 298 298 296 296 297 297 297 297 297 297 297 297 296 295 294 293 295
301 300 299 297 297 297 296 290 289 289 291 294 294 294 293 292 293 295 297 296 296 297 297 297 296 295 293 294 295 295 292 292 293 295 295 296 294 293 294 295 297 296 299 303 307 301 303 305 307 307 307 306 310 314 314 310 312 312 311 309 306 295 296 296 296 296 296 296 296 295 294 293 295 297
298 298 299 297 291 290 289 288 288 288 288 292 293 293 291 291 291 295 295 295 295 295 294 295 295 295 296 296 296 296 296 297 297 296 296 296 295 293 293 295 296 295 298 304 306 302 303 306 305 309 307 304 302 310 312 310 309 308 307 307 306 296 295 295 295 294 295 295 295 294 293 293 295 296
296 296 297 299 294 288 288 288 288 288 288 288 291 291 290 291 292 291 291 292 290 291 292 292 292 292 293 294 295 295 295 295 296 296 296 297 296 295 294 293 294 295 298 302 299 304 302 304 304 307 307 307 307 307 308 307 306 305 305 305 303 302 302 301 298 297 294 294 293 293 293 293 294 295
296 296 297 299 294 287 288 287 287 287 287 287 290 290 288 288 287 289 290 290 290 290 290 290 290 291 291 292 293 294 294 295 295 296 296 297 297 297 297 295 294 294 296 302 296 302 300 301 304 304 306 306 306 306 306 306 307 306 306 305 303 301 300 299 297 296 296 295 294 293 293 293 293 293
296 298 298 298 291 287 287 287 287 287 287 288 289 287 287 287 287 288 289 289 289 289 289 289 289 290 290 291 291 292 293 294 295 295 296 297 297 297 297 298 298 297 299 301 302 302 301 299 302 302 303 306 304 305 305 304 302 303 303 302 301 300 299 299 296 295 294 294 294 292 292 291 291 292
296 297 297 294 288 287 287 287 287 288 288 289 287 287 287 287 287 289 289 288 288 288 288 288 288 288 290 291 291 292 293 294 295 296 296 296 296 296 296 297 297 298 298 299 300 300 300 300 300 302 303 303 304 304 304 307 305 300 300 301 300 299 299 298 296 295 295 294 293 293 293 292 293 293
296 291 288 288 288 288 288 287 287 288 288 287 287 287 287 288 290 289 289 289 289 288 288 288 288 289 290 291 292 294 295 295 295 295 295 296 296 296 296 297 297 298 298 299 299 300 300 299 299 301 302 302 302 304 306 306 305 301 300 297 295 296 297 297 296 294 294 294 293 293 293 293 292 294
289 288 288 287 287 288 289 291 291 291 291 288 288 287 288 290 290 290 289 289 289 288 289 288 289 290 292 292 293 294 294 293 293 293 293 293 292 293 293 293 294 296 297 298 299 299 299 299 299 299 300 301 302 304 307 307 303 302 298 297 296 294 295 295 294 294 293 292 293 293 293 293 293 293
294 292 291 291 289 288 287 287 287 288 289 290 291 291 291 292 292 292 291 291 290 289 289 289 290 291 292 293 292 292 292 292 292 292 291 291 291 291 292 291 291 292 295 297 298 299 299 299 299 299 298 300 303 304 306 305 303 299 297 297 294 290 292 294 294 293 293 293 293 293 293 292 292 293
292 292 290 290 293 292 291 291 291 291 291 290 290 290 290 290 291 290 290 290 290 290 290 290 290 290 291 291 291 291 291 291 291 292 291 290 290 291 291 290 290 292 293 295 296 297 295 300 301 302 301 301 300 302 304 305 301 298 296 295 295 295 293 292 292 292 293 292 291 291 291 291 291 292
291 291 292 291 290 290 288 288 288 289 289 289 290 290 290 290 290 290 290 289 289 290 290 289 289 289 290 290 290 290 289 290 290 291 291 291 290 291 291 289 289 290 290 290 292 295 297 299 300 300 300 301 302 303 302 300 299 298 295 294 294 292 293 293 292 292 293 292 290 290 289 290 291 292
289 289 289 289 289 288 288 287 287 287 288 287 288 288 288 288 289 289 289 289 289 289 289 289 288 288 288 288 289 289 289 289 290 291 289 290 291 289 288 288 289 290 290 290 292 293 295 297 298 299 300 300 302 304 304 301 298 297 296 295 294 292 293 293 293 293 292 292 290 288 288 288 291 293
289 289 289 288 288 288 288 287 287 287 287 287 287 288 288 288 288 287 288 288 288 288 288 287 288 287 288 287 287 287 288 288 289 290 290 290 290 289 289 288 289 289 290 290 291 293 294 295 295 296 298 298 298 300 298 302 301 297 296 295 294 293 292 294 293 292 293 292 292 288 288 289 290 293
289 289 289 288 288 288 287 287 287 287 287 287 287 287 287 287 288 287 287 288 288 287 287 287 287 287 287 287 287 288 288 288 288 289 289 289 289 289 289 289 289 289 290 290 291 293 294 295 295 294 292 292 292 292 294 295 297 297 293 292 294 293 293 293 293 293 292 292 291 289 287 287 288 291
289 289 288 288 287 287 287 287 287 287 287 287 287 287 287 286 287 288 288 288 288 287 287 287 287 287 287 287 287 287 288 288 287 288 288 289 289 289 288 288 288 289 290 290 292 293 294 294 295 294 292 290 289 289 292 293 293 296 297 292 292 293 292 292 292 291 292 292 290 289 288 288 288 290
289 289 288 288 288 288 287 287 287 287 287 287 287 287 287 287 287 288 288 287 287 287 287 287 287 287 287 288 288 287 288 288 288 288 287 288 288 288 288 288 288 289 290 291 292 293 295 295 294 293 292 289 289 290 290 290 292 293 295 295 291 291 292 291 289 289 289 291 290 290 290 288 289 290
289 288 288 287 287 288 287 287 287 287 287 287 286 286 286 286 287 287 286 286 286 286 287 287 287 287 287 287 287 287 287 287 287 287 287 288 288 288 288 288 288 289 290 289 292 293 294 294 293 293 293 291 290 292 294 291 291 293 292 293 293 291 291 291 290 289 289 288 288 289 289 290 289 287
288 288 288 288 288 288 287 287 287 287 287 286 286 286 286 285 286 286 286 286 286 286 287 286 286 286 286 287 287 287 287 287 287 287 287 288 288 288 288 289 289 289 289 289 289 291 293 293 293 293 294 294 295 296 296 294 292 291 291 291 291 292 291 291 290 289 288 288 287 286 285 286 286 288
288 288 288 288 288 288 287 287 287 287 287 287 286 286 286 286 285 285 286 286 286 286 286 286 286 286 286 287 287 287 286 287 287 287 288 288 288 288 288 287 288 289 289 288 289 290 292 294 294 291 295 292 291 292 291 289 287 287 288 289 290 290 291 291 291 289 287 288 287 286 285 285 285 286
289 288 288 288 287 287 288 287 288 287 287 286 286 285 285 285 286 286 286 286 286 286 286 286 286 286 286 287 287 287 286 286 287 287 287 288 288 288 288 288 288 289 289 288 289 291 294 297 292 290 291 291 292 290 288 286 285 285 286 288 289 289 289 289 290 290 290 288 287 286 285 285 285 284
289 288 288 288 288 287 287 287 287 287 286 286 286 285 285 285 286 286 286 286 285 285 286 286 286 286 287 287 288 288 287 287 287 287 287 287 287 287 288 288 289 289 289 289 290 291 291 291 292 291 291 291 292 291 287 286 286 286 286 287 286 288 288 289 289 289 289 289 289 288 288 286 284 282
289 288 287 287 287 287 287 287 286 286 286 286 286 286 285 285 285 285 285 285 285 285 286 286 286 287 287 288 288 288 288 288 288 288 288 288 288 288 289 289 289 289 289 289 289 289 290 290 291 291 291 290 290 288 286 286 286 286 286 286 286 286 286 287 288 288 287 287 287 288 288 288 288 287
288 288 288 287 287 287 287 287 286 286 286 286 286 285 285 285 285 285 286 286 286 286 286 286 286 287 288 288 288 287 288 288 289 289 290 289 289 289 289 289 289 288 289 289 288 287 288 289 291 292 291 290 289 288 287 287 286 285 285 285 285 286 286 286 286 285 285 286 286 286 287 287 287 287
Wind_Speed
1 2 1 2 1 1 1 2 2 2 2 3 4 5 5 4 6 6 6 5 5 4 3 4 4 6 6 4 5 6 7 2 7 7 8 7 7 8 13 12 13 13 14 14 14 14 15 13 13 14 15 15 15 13 17 20 20 20 20 19 20 20 19 18 19 19 21 21 19 18 17 15 14 13
2 1 1 1 1 2 2 1 2 3 3 3 4 4 4 5 6 6 7 7 5 6 5 5 5 3 5 5 4 5 6 6 9 10 10 9 8 2 10 10 11 12 13 14 14 15 14 14 13 13 14 15 15 15 15 18 20 21 21 21 21 21 20 19 19 20 20 20 18 17 16 16 14 13
2 2 1 1 1 1 1 2 2 2 3 3 4 4 4 5 6 7 7 8 4 3 5 5 5 7 8 8 8 7 8 9 8 9 9 10 2 1 7 10 12 14 14 14 13 13 14 14 13 13 15 15 16 17 17 18 20 21 22 22 22 22 22 21 20 21 22 21 20 19 18 16 16 12
2 1 1 1 2 2 3 2 2 3 3 3 5 4 5 5 5 6 7 9 9 6 7 7 8 9 7 7 8 9 8 7 6 9 9 9 10 10 11 14 18 16 15 13 13 13 13 13 13 13 14 15 16 17 18 18 19 21 22 23 23 24 23 22 21 22 23 22 20 19 19 18 15 15
2 1 0 1 0 1 3 3 3 3 3 4 4 5 5 5 5 6 8 9 9 7 6 6 7 7 8 9 8 9 7 7 7 8 9 9 9 9 9 10 12 17 16 16 14 13 13 13 13 13 13 14 14 15 17 18 18 20 23 24 24 23 22 23 23 23 23 22 21 19 20 20 20 18
2 2 1 0 0 1 3 3 6 4 3 4 5 4 4 6 6 5 7 9 9 10 7 7 7 8 8 10 7 7 7 8 8 10 9 9 10 10 10 10 7 16 14 13 13 12 12 13 14 14 13 13 13 14 17 17 17 19 22 23 23 24 25 24 25 23 22 21 21 20 21 21 21 19
2 2 1 1 0 1 2 3 4 4 5 5 5 5 5 6 7 7 7 8 9 10 9 8 9 8 7 7 8 9 8 8 9 10 10 9 8 9 9 9 9 11 13 13 12 12 12 13 14 14 14 13 13 14 16 17 18 19 21 22 23 24 24 25 23 23 24 23 22 21 22 22 22 20
2 1 1 1 1 2 3 3 3 4 4 4 5 6 6 7 7 7 7 9 9 9 10 8 9 8 8 8 9 8 8 9 9 9 10 10 10 10 9 10 11 6 10 11 11 11 11 12 13 13 13 13 13 14 15 16 18 19 20 21 22 22 24 24 24 25 24 25 24 22 22 22 21 22
2 1 2 2 2 2 4 4 4 4 5 6 6 6 7 7 7 6 7 8 9 10 11 10 9 9 9 9 9 9 10 9 8 9 9 9 9 10 9 10 10 6 14 14 13 12 12 12 13 13 12 12 12 14 15 16 17 18 19 20 21 22 23 24 26 25 24 24 23 23 22 22 23 25
2 2 1 1 2 2 4 4 4 5 6 6 7 8 8 8 8 8 9 9 10 11 11 10 10 8 9 9 8 8 9 9 9 8 9 9 9 9 10 9 9 8 8 6 7 9 10 15 15 12 11 12 12 14 15 16 17 18 19 20 21 22 23 24 21 20 22 23 23 22 23 23 23 26
2 2 1 1 2 3 3 4 5 5 6 6 8 8 8 8 8 9 9 9 10 11 11 11 10 10 9 9 9 8 7 9 9 9 9 8 7 6 7 8 7 7 8 11 12 11 12 4 4 10 12 12 13 14 14 15 17 18 19 19 20 21 22 23 22 24 25 25 24 24 22 24 24 27
2 2 2 2 1 1 2 4 5 6 6 7 8 7 7 8 9 9 9 10 10 10 11 11 10 9 9 9 9 9 8 8 8 7 7 8 7 7 7 8 9 9 9 10 8 10 10 10 11 10 10 12 13 14 13 15 16 18 19 20 20 20 21 22 24 25 25 23 23 22 23 24 25 25
2 2 1 2 2 1 3 4 6 8 7 7 8 8 8 9 9 10 9 10 10 11 11 11 10 10 10 9 9 8 8 8 8 6 6 8 9 9 9 8 9 9 9 9 9 9 8 10 10 8 8 9 16 14 15 12 17 18 17 18 19 20 21 22 24 24 23 23 24 25 24 24 23 24
2 2 3 2 3 4 8 9 10 11 12 12 10 9 8 9 9 10 10 10 10 11 11 11 11 11 11 9 9 9 9 8 9 10 9 10 9 8 9 9 9 9 10 10 11 10 10 10 10 10 9 9 7 8 9 9 10 14 17 17 18 19 21 22 23 23 23 24 25 25 24 24 25 25
2 3 3 5 4 8 11 12 15 14 13 13 14 15 14 13 11 11 11 11 11 11 12 11 12 12 12 11 10 10 10 9 9 9 9 9 9 9 9 9 6 6 8 8 9 9 9 9 10 10 10 10 10 7 10 8 14 13 17 17 17 18 19 21 22 24 23 22 23 24 24 24 25 24
2 3 4 4 4 5 5 7 8 9 14 15 15 15 15 15 16 16 14 12 11 12 12 12 13 13 13 12 10 10 9 9 9 9 9 10 10 10 10 9 9 5 6 8 9 10 8 9 10 11 10 10 9 9 4 6 7 9 12 15 16 16 17 19 21 22 23 24 25 25 23 21 20 21
4 4 5 5 5 5 3 7 7 8 8 9 15 16 16 17 17 17 18 19 16 14 14 14 15 13 12 13 11 10 10 9 11 10 11 10 10 11 11 11 9 8 7 8 10 10 9 9 10 11 10 9 10 7 10 11 9 9 9 11 14 16 17 18 19 19 19 22 23 22 20 21 22 20
5 5 6 6 7 7 7 7 8 8 8 9 9 8 9 10 14 20 21 20 21 20 16 16 16 14 13 14 13 12 11 13 12 12 12 10 12 13 13 13 13 11 9 10 10 12 10 8 9 10 10 10 8 11 9 15 12 10 9 9 11 13 15 16 17 18 19 19 20 19 19 20 20 18
6 6 6 7 8 8 8 7 8 10 10 10 9 10 11 11 12 11 11 13 14 15 15 16 16 16 16 16 17 16 15 16 15 14 15 15 15 15 16 16 15 14 13 13 11 14 10 8 11 10 9 9 10 8 10 10 10 8 6 7 10 11 13 14 15 17 17 17 16 17 18 17 16 16
6 7 7 8 8 8 9 10 3 4 8 11 12 12 12 12 12 11 11 13 10 12 12 12 13 13 12 12 11 11 11 11 11 11 12 13 14 14 15 15 12 13 10 12 12 13 12 10 10 10 9 10 10 9 5 8 9 7 1 5 8 10 11 12 13 14 15 15 17 17 18 19 19 18
7 7 8 8 8 10 10 7 5 3 3 10 12 13 13 12 12 12 11 13 13 15 16 16 18 19 19 20 19 18 17 13 12 13 14 15 12 14 15 14 13 13 11 11 12 13 13 11 10 11 10 10 11 9 5 6 7 7 5 5 7 9 9 10 11 12 14 15 15 16 15 16 17 19
7 8 7 9 11 10 10 3 4 2 6 10 12 14 15 15 14 14 12 11 10 12 15 17 18 17 17 18 20 21 22 21 17 15 19 16 14 17 16 16 13 12 11 10 10 12 13 11 11 11 10 10 11 9 8 2 6 8 5 4 5 7 7 8 9 11 13 14 14 15 19 19 19 13
7 9 9 10 11 11 10 6 5 3 6 10 13 15 15 15 16 14 15 14 14 14 13 12 12 13 16 17 16 17 19 20 20 18 18 17 17 18 17 15 13 14 12 10 10 13 12 11 11 10 9 11 9 10 7 4 3 4 4 4 3 1 4 5 8 10 11 13 15 17 19 21 18 11
9 10 10 9 9 9 3 2 2 4 6 9 13 14 14 15 16 13 14 14 13 15 14 15 15 16 15 14 13 14 14 15 17 18 17 17 18 18 17 16 15 15 11 7 8 12 12 11 11 11 12 11 9 8 7 6 4 4 4 4 3 4 5 7 7 10 12 13 16 18 19 19 16 9
10 10 10 9 3 10 6 6 4 6 7 8 13 15 16 16 15 15 15 16 17 16 15 16 16 15 14 14 15 15 15 15 15 15 16 16 16 18 17 16 15 16 14 13 10 10 10 10 11 11 12 12 11 9 6 5 4 5 5 4 4 5 5 6 7 7 10 14 16 19 18 17 14 10
10 10 10 10 6 10 8 7 9 10 12 14 15 17 19 18 17 17 17 16 15 14 13 13 14 14 14 14 14 14 14 14 15 15 15 14 16 16 17 16 16 15 13 11 10 12 12 11 11 11 11 11 11 11 9 7 6 5 5 5 5 5 6 7 8 9 10 10 10 11 12 13 13 14
10 10 10 8 9 15 15 15 15 17 18 17 16 18 16 17 16 15 15 15 15 14 14 14 14 14 14 14 14 14 14 13 14 14 14 15 15 15 16 16 17 17 15 14 13 12 13 12 11 12 12 11 11 10 10 8 5 5 5 5 6 6 7 8 9 10 10 11 11 14 13 12 13 14
9 9 9 10 17 17 17 18 17 17 18 16 19 19 20 20 18 14 15 14 14 14 14 14 14 14 13 13 14 13 13 13 13 13 14 15 16 16 15 16 17 17 17 16 15 15 13 13 12 13 14 12 12 12 10 10 7 8 7 6 6 7 7 8 9 10 11 11 12 12 11 9 8 9
9 9 11 14 16 15 16 18 19 17 17 18 17 17 17 16 13 13 12 13 12 13 14 14 13 13 13 13 13 13 13 14 13 14 13 13 14 14 15 15 15 14 11 12 15 16 16 14 13 12 12 13 13 11 10 8 8 8 9 9 6 7 8 8 9 10 11 12 12 12 11 11 9 7
15 16 16 16 16 16 14 12 11 12 13 14 16 18 19 13 12 12 12 12 12 13 13 13 14 13 13 13 13 14 14 13 14 13 13 13 13 13 12 12 13 13 13 13 14 16 16 16 14 13 12 12 12 13 11 6 8 8 10 8 8 7 6 8 9 10 11 12 12 12 10 10 9 9
8 9 10 12 14 15 17 17 16 16 15 13 12 10 10 10 11 11 11 12 12 13 13 13 13 13 13 13 13 12 12 13 13 13 12 13 13 11 11 11 10 10 11 13 12 14 15 14 15 16 15 13 12 12 12 9 6 9 8 9 11 6 9 10 10 10 10 11 11 11 11 9 9 8
10 10 11 11 9 9 9 9 9 9 10 10 11 10 10 11 11 12 13 14 14 14 13 14 14 14 13 13 13 13 13 13 12 12 12 11 12 11 9 9 10 10 11 11 12 13 13 14 13 12 13 13 12 9 8 7 7 9 9 9 7 6 10 11 11 11 12 12 11 11 11 9 10 8
10 10 10 8 9 9 9 9 9 10 10 10 10 12 11 10 11 11 11 12 12 12 12 12 13 13 13 13 12 12 12 13 13 11 10 9 10 9 9 10 10 10 10 10 9 11 11 12 13 13 13 13 12 9 8 7 5 8 10 10 9 9 9 9 11 12 13 12 11 11 11 8 8 9
9 8 8 8 8 9 9 10 10 10 10 11 11 10 11 11 11 11 11 12 12 12 12 12 12 12 12 12 12 12 11 11 10 11 10 11 10 10 10 10 9 12 10 11 10 10 9 8 7 9 11 11 10 9 6 7 5 8 8 10 9 9 9 9 10 12 13 11 12 11 11 10 8 8
7 8 9 9 9 9 9 10 10 11 11 11 11 11 11 10 10 11 11 12 11 12 12 12 11 12 12 12 10 9 9 10 12 10 9 11 11 12 10 11 10 10 10 10 11 10 8 7 7 7 8 9 10 9 3 1 5 8 9 8 9 10 11 9 11 11 12 11 10 11 10 10 10 10
8 8 9 9 9 9 10 10 10 11 11 11 11 11 11 11 11 11 12 11 12 12 12 12 11 12 12 12 11 10 10 9 10 11 10 11 11 11 11 11 10 13 12 12 11 10 9 8 8 9 9 9 10 11 9 4 2 10 10 8 9 10 10 10 8 9 10 11 10 10 13 14 12 12
8 8 8 9 9 9 10 10 11 11 11 11 12 11 12 12 12 12 13 12 13 12 12 12 12 12 12 11 11 10 10 10 12 11 11 9 9 10 11 12 12 12 11 10 9 9 9 9 7 8 8 9 10 11 7 2 3 3 7 10 10 10 11 11 11 9 7 9 10 9 12 14 13 11
8 8 9 9 10 10 10 10 11 11 11 11 12 12 12 12 12 13 13 13 12 12 12 12 11 11 10 10 11 11 11 11 11 11 10 9 9 10 11 11 10 10 10 9 9 8 8 9 8 8 9 10 9 10 8 3 4 2 3 9 12 11 8 11 13 12 9 8 9 8 9 9 9 8
9 9 9 9 10 11 10 11 11 11 12 12 12 12 12 12 13 12 12 12 12 12 12 12 11 11 11 10 10 11 11 10 11 10 10 9 9 9 9 9 9 9 8 8 9 9 8 9 9 8 9 9 9 8 7 8 7 6 4 2 10 13 12 13 14 10 9 10 9 9 9 9 12 16
8 9 9 10 10 11 11 10 11 11 12 12 12 12 13 13 13 13 12 12 11 11 12 12 12 12 11 10 9 10 10 10 11 9 9 9 8 8 9 9 9 8 7 7 8 8 9 9 8 7 7 8 5 2 5 8 8 6 6 5 5 12 13 11 12 12 9 8 11 11 12 11 11 9
9 9 9 9 9 10 10 11 11 11 12 12 13 13 13 12 13 13 12 12 13 14 13 13 11 11 11 8 9 8 9 9 8 9 8 8 8 7 8 7 8 8 9 8 7 9 9 8 8 10 9 3 8 8 8 8 8 8 7 4 8 6 6 9 13 14 13 13 12 12 13 12 13 11
9 10 9 9 10 10 10 11 12 12 12 12 12 13 13 12 12 15 14 13 11 11 12 11 11 8 9 10 8 7 9 10 10 9 7 8 9 8 8 8 8 8 8 8 8 8 5 4 5 5 8 9 8 7 7 9 10 8 8 7 6 11 16 16 13 12 14 15 14 15 14 12 10 10
10 9 10 10 9 9 10 11 12 12 12 12 13 13 13 13 12 12 12 12 11 11 11 10 9 9 9 8 8 8 8 9 9 8 7 7 6 6 7 8 9 9 8 6 4 2 2 4 6 7 7 7 7 7 10 11 12 12 11 10 8 9 12 17 19 17 15 14 12 8 6 9 11 11
10 10 10 10 10 11 11 11 12 11 12 13 13 13 13 13 13 12 11 12 12 11 11 10 11 10 10 9 8 8 8 7 7 7 7 7 7 7 7 7 7 8 7 6 5 4 4 5 7 8 8 5 6 9 13 13 12 12 13 11 10 12 11 10 12 15 15 16 15 15 14 12 12 11
10 10 10 10 11 11 11 11 11 11 11 12 12 13 13 13 12 12 12 12 12 12 11 11 10 9 9 8 8 7 6 7 7 6 6 6 6 7 7 6 6 6 6 6 6 5 6 6 7 5 4 6 6 10 11 12 14 13 13 14 14 12 9 7 9 10 9 7 9 14 16 17 16 16
Wind_Direction
98 69 12 352 85 63 313 297 297 278 270 275 288 280 278 283 280 287 290 285 291 293 335 316 336 334 310 315 331 320 310 49 16 317 295 291 294 195 201 213 236 246 254 253 245 244 243 236 233 234 237 237 235 230 217 203 200 200 200 200 199 201 207 205 201 200 205 207 204 204 203 198 196 193
87 83 31 352 46 32 311 359 310 289 289 279 270 274 274 268 269 277 283 284 283 281 280 264 277 301 331 337 303 298 292 327 324 296 294 297 288 53 195 207 219 235 246 253 255 251 250 246 239 234 232 233 231 229 224 217 204 201 199 199 199 199 203 205 200 199 204 207 204 198 199 195 194 193
96 86 89 351 80 348 263 267 238 267 260 264 262 258 259 267 270 279 277 280 261 275 288 294 296 304 305 302 300 293 292 297 301 288 281 276 286 256 252 221 223 227 233 239 241 245 245 245 243 236 233 231 229 227 226 221 213 204 200 198 199 199 201 203 201 200 203 208 205 195 195 193 191 185
122 138 146 22 347 350 295 243 276 273 256 275 284 274 267 264 263 270 273 271 278 289 291 295 291 283 282 290 288 284 284 277 265 278 275 277 286 273 267 233 220 222 227 233 242 246 248 246 243 239 234 231 229 226 225 224 215 206 202 200 200 200 200 200 201 202 202 206 204 196 191 191 184 185
141 106 160 185 214 275 295 306 285 266 287 273 260 267 267 265 259 260 268 274 280 281 278 280 284 291 292 282 280 285 286 287 283 281 281 284 281 278 273 270 208 208 212 221 226 238 247 251 251 246 238 232 228 225 226 226 217 208 206 203 202 200 200 200 201 203 204 205 204 195 191 189 187 187
158 176 245 305 147 268 291 283 288 280 265 267 261 249 256 271 274 263 276 279 284 288 289 283 286 289 286 282 277 283 290 287 284 280 279 276 273 271 278 271 256 189 206 208 216 227 240 248 254 254 245 236 227 223 226 226 221 214 210 207 204 200 201 200 202 201 204 206 204 196 191 190 189 186
123 202 238 259 233 228 262 271 270 278 269 277 285 280 277 276 274 276 272 281 282 285 287 290 286 281 281 280 289 286 281 282 288 287 282 278 272 273 267 269 273 176 192 194 203 218 224 237 242 244 244 239 227 223 224 224 222 219 214 211 208 204 203 204 201 199 201 205 204 197 193 191 192 187
207 228 260 256 273 282 282 284 294 279 278 273 281 283 269 259 260 262 265 262 273 281 284 285 284 287 290 283 277 275 272 274 272 276 284 283 280 276 269 261 264 167 172 179 203 210 227 237 239 235 236 234 227 221 220 220 221 221 217 214 210 207 207 204 202 203 201 203 203 198 193 193 192 191
225 232 251 283 301 285 291 284 278 296 296 292 288 287 286 281 279 273 265 269 269 274 277 281 280 279 277 279 281 279 281 279 276 276 272 277 285 285 285 287 277 265 193 194 203 206 218 235 243 243 237 232 228 222 219 217 219 221 218 215 212 209 209 207 207 203 201 202 202 198 192 193 194 196
186 223 245 268 280 294 285 289 292 292 290 289 283 282 287 292 295 289 284 279 276 276 276 277 281 273 274 277 272 276 275 279 284 283 282 280 274 270 269 267 267 267 275 255 207 204 219 222 232 239 237 232 227 225 221 217 216 218 218 216 214 211 209 211 207 200 205 208 205 199 193 193 195 198
185 214 214 242 251 268 284 286 287 288 287 279 278 275 275 277 277 278 277 276 277 278 280 280 277 280 273 268 277 271 270 273 274 279 282 278 272 270 275 276 270 261 254 243 239 251 269 295 212 208 228 233 229 225 221 220 218 217 216 215 215 213 210 209 205 205 206 205 202 200 196 194 195 198
192 191 210 220 241 258 293 308 302 297 284 288 283 279 277 275 274 274 274 273 272 272 272 273 278 277 283 280 273 276 268 267 266 263 276 286 293 291 292 287 288 286 281 282 264 211 220 230 228 216 211 218 226 224 223 221 222 220 218 215 213 211 210 208 208 210 210 206 206 203 200 196 197 198
207 233 219 236 221 32 329 309 284 280 289 284 277 275 277 273 271 269 268 271 271 271 270 273 272 271 272 275 278 276 273 271 284 302 296 285 285 286 280 273 269 273 274 272 266 266 229 236 238 224 232 218 207 213 210 218 214 221 220 219 213 209 207 208 211 212 209 207 206 206 202 201 197 199
237 259 272 252 178 216 227 232 229 231 238 241 254 274 280 278 274 271 271 270 269 271 273 272 275 274 272 273 275 277 278 284 288 284 278 275 280 281 279 275 265 256 260 263 264 260 255 255 251 244 242 255 197 240 189 218 218 204 215 218 218 213 208 207 210 211 210 208 208 208 206 203 199 198
266 270 280 296 218 209 220 222 218 230 235 230 235 241 248 261 271 276 274 270 270 273 274 275 272 270 270 268 270 273 279 278 278 280 283 282 282 278 283 284 283 276 272 272 276 273 270 266 261 246 240 238 243 236 244 197 206 193 198 211 217 217 213 211 209 211 211 210 211 210 209 207 203 199
273 284 287 284 290 281 291 304 287 243 218 221 227 228 234 237 242 249 258 266 268 268 270 269 266 269 268 271 268 270 271 274 275 273 277 280 281 278 273 272 275 284 312 296 284 275 275 274 267 261 248 241 233 223 211 102 175 186 193 204 213 217 217 217 216 213 208 208 210 211 210 207 202 202
279 284 287 287 286 295 236 253 275 291 289 227 209 222 228 231 233 236 234 241 254 269 268 269 270 267 275 274 270 271 277 283 281 281 273 271 274 276 273 272 278 280 286 283 275 271 265 261 260 259 253 248 255 209 176 196 180 189 198 205 211 217 219 219 221 220 216 216 212 209 203 202 203 195
266 274 282 291 293 295 297 294 287 296 296 300 290 262 252 261 231 218 225 229 231 234 247 258 263 265 266 270 275 279 279 274 270 274 274 274 274 273 274 281 277 275 278 274 285 279 271 270 269 262 257 248 241 251 195 184 185 182 199 212 214 217 220 221 221 220 219 218 215 209 201 199 198 191
261 271 270 276 283 289 292 293 302 296 296 296 290 280 276 269 271 271 254 234 227 224 228 242 256 265 267 269 270 270 270 271 274 271 273 275 275 274 277 276 271 271 267 268 264 264 267 257 259 259 261 258 244 243 112 142 148 171 195 223 228 222 220 222 222 219 217 212 204 199 196 188 182 175
264 266 270 275 280 287 290 298 299 262 293 293 288 283 278 275 273 268 259 259 279 292 287 274 270 270 286 308 306 306 305 305 302 305 293 275 265 268 267 265 267 263 255 246 249 256 260 254 256 263 259 258 254 238 162 116 118 104 32 265 249 234 226 221 220 216 210 200 198 193 181 174 169 161
269 267 268 274 287 288 287 308 46 49 308 290 287 286 284 282 278 273 272 260 235 228 240 253 267 275 279 281 285 286 284 283 290 287 274 262 266 263 262 262 260 258 254 243 244 256 259 252 253 255 251 251 255 249 221 125 87 73 37 296 269 250 229 216 210 204 198 194 189 180 165 153 151 144
275 275 250 251 272 276 280 345 74 9 303 289 289 289 288 285 281 277 278 277 261 219 215 230 240 247 254 258 261 268 272 273 268 262 256 256 259 260 258 264 265 266 254 244 242 253 255 255 248 253 253 252 240 240 243 222 121 120 178 201 267 258 231 206 195 192 186 179 171 156 153 152 143 136
287 286 275 230 232 262 277 296 295 292 267 278 293 293 289 285 279 279 281 278 278 277 272 256 239 235 233 237 244 247 243 246 252 254 255 254 251 254 257 258 265 264 255 249 237 247 252 252 249 248 250 246 239 226 191 128 222 242 249 200 190 161 210 178 173 168 165 162 156 153 150 146 144 143
292 290 287 280 223 218 241 324 277 247 241 270 289 291 284 281 279 283 282 279 284 282 276 273 272 274 275 271 259 258 254 241 235 242 247 245 244 249 251 252 253 255 260 256 237 242 252 258 257 245 246 252 248 222 198 216 195 198 203 209 212 122 112 110 116 134 144 147 145 146 147 150 148 140
292 292 294 294 16 120 149 184 207 243 254 270 284 284 277 272 284 299 286 285 290 280 276 272 272 270 269 265 261 258 255 254 252 248 243 242 241 244 247 247 250 252 256 258 289 275 260 248 255 257 250 247 248 240 189 191 169 181 188 182 164 139 136 127 124 125 123 132 138 142 146 145 141 137
287 294 297 294 37 53 19 347 317 296 284 277 280 278 276 283 285 279 277 280 278 274 269 268 266 265 261 259 258 256 256 255 251 249 248 244 242 240 243 246 249 254 254 254 249 257 264 257 252 255 257 253 243 239 222 206 188 176 174 161 148 139 135 132 127 129 136 137 134 138 141 138 131 126
292 291 297 294 21 341 329 316 307 298 289 283 279 278 276 273 271 270 274 272 269 265 263 261 260 259 258 258 258 257 257 255 253 251 248 247 247 246 244 243 248 252 259 264 260 255 252 256 258 259 255 254 254 228 227 212 183 175 177 157 143 141 140 139 135 136 137 138 140 124 119 115 117 121
293 292 300 324 331 311 298 286 280 280 280 283 282 277 274 271 270 273 272 267 262 262 259 257 254 252 251 252 253 253 254 254 252 251 250 248 247 247 249 249 249 250 253 255 256 252 257 259 254 254 259 263 265 249 230 223 184 163 175 155 145 144 146 143 138 138 140 138 140 146 145 137 131 123
291 299 295 283 278 280 280 278 273 268 262 255 255 259 261 264 274 272 267 264 261 258 255 253 252 251 250 251 253 256 258 257 254 252 252 249 248 247 248 249 250 250 244 243 249 247 247 252 256 254 252 258 260 261 247 240 186 175 167 151 150 151 147 146 145 145 146 146 150 151 153 151 143 140
269 265 263 265 262 263 268 279 295 304 299 296 287 280 275 273 272 268 263 260 260 260 261 259 257 257 258 257 257 257 257 256 253 250 249 248 246 245 246 250 249 248 249 245 241 243 244 246 250 252 254 255 259 259 253 254 193 171 155 163 140 126 140 148 148 146 145 149 153 153 152 154 144 141
267 287 301 301 291 275 271 265 259 259 264 264 265 272 275 284 283 278 273 272 271 269 266 263 261 261 262 264 263 258 254 252 250 245 246 246 246 243 243 244 247 245 244 244 242 241 241 240 240 240 244 249 257 261 264 278 199 159 165 154 152 159 161 152 150 150 148 146 147 146 149 146 142 150
311 300 289 277 285 300 301 298 307 305 306 301 297 291 289 287 285 280 274 270 271 269 268 268 268 266 265 262 260 258 254 252 249 244 241 239 242 240 241 240 243 244 245 244 244 241 238 241 244 248 250 251 254 263 261 256 194 170 163 160 159 130 147 152 150 151 149 145 144 150 154 147 151 156
300 299 304 309 305 307 309 308 305 305 304 302 297 293 290 288 286 285 285 282 278 274 273 271 269 267 265 263 261 258 254 250 249 245 244 238 239 236 232 239 243 241 241 240 241 244 241 234 229 235 243 247 246 253 260 243 170 163 159 158 149 140 154 152 150 149 150 147 145 147 149 144 152 155
293 300 310 312 310 308 309 310 307 306 307 305 301 296 292 288 284 281 280 278 277 275 273 272 272 270 267 264 260 257 256 256 250 241 231 236 228 232 231 234 233 240 242 242 241 237 233 231 223 217 224 239 246 248 252 252 175 168 159 157 148 147 154 153 152 154 157 157 146 141 141 150 156 161
310 318 317 313 310 307 307 306 305 305 305 304 303 302 299 293 287 283 279 277 278 277 275 271 266 264 262 262 260 253 250 251 253 250 229 230 230 232 228 230 234 235 236 236 237 238 232 221 217 219 222 225 236 232 103 293 197 159 151 152 151 149 154 157 156 157 158 149 146 139 142 146 157 165
309 322 318 315 312 310 305 304 307 306 305 304 304 304 301 297 293 290 284 282 282 281 278 274 271 267 265 263 261 257 254 249 250 247 240 232 229 231 232 232 234 238 237 238 236 232 229 225 213 211 218 223 224 231 225 359 107 156 148 150 150 152 152 152 148 154 154 151 147 146 150 155 157 158
323 320 319 314 312 309 306 307 307 306 303 303 304 305 304 300 298 293 290 287 284 280 275 273 270 268 266 263 261 258 254 250 249 245 241 236 231 230 232 234 233 233 233 233 230 228 219 218 215 214 220 225 230 226 213 124 59 64 162 144 151 152 149 147 150 149 151 142 145 145 151 149 148 143
323 318 317 315 314 312 310 309 307 306 305 305 303 302 300 298 297 295 294 290 285 284 280 276 273 269 265 264 263 261 256 250 246 243 237 231 229 228 230 233 232 228 226 227 225 226 215 215 215 212 221 228 226 222 195 132 156 167 155 147 144 153 144 148 149 151 142 135 115 111 109 120 130 135
321 321 317 316 316 315 313 313 311 308 308 306 304 302 301 300 299 297 294 290 287 284 283 280 277 273 272 269 265 261 258 254 246 237 233 229 225 227 229 229 232 230 220 220 218 221 218 217 217 216 216 226 230 229 192 159 164 148 63 79 140 144 159 155 152 141 130 123 109 99 90 87 82 91
326 318 318 316 316 316 315 315 313 311 309 306 305 304 303 300 298 297 293 290 288 287 287 284 279 274 270 264 258 256 252 248 245 242 236 232 228 224 226 230 230 226 218 219 216 213 215 219 216 217 221 232 250 280 124 107 109 89 82 66 132 157 155 159 150 138 114 112 114 110 117 122 128 131
329 324 323 323 318 318 317 316 315 314 310 307 305 302 300 298 296 293 291 291 292 290 288 285 280 270 268 259 257 250 253 246 238 233 230 229 229 223 221 221 231 224 222 221 217 220 216 214 208 212 220 148 118 114 106 120 122 121 106 91 55 60 133 146 148 140 130 132 121 122 131 135 137 141
331 330 327 326 324 319 317 317 318 318 314 310 306 304 301 298 294 289 290 287 284 285 286 283 279 268 268 268 258 249 245 244 240 234 223 223 226 221 219 220 227 224 217 219 213 222 217 155 150 144 139 153 159 147 137 130 125 113 109 91 70 75 81 83 86 106 130 142 142 136 128 128 132 136
336 333 333 327 325 319 317 318 317 316 313 310 307 305 303 299 297 297 298 296 293 290 287 284 279 276 274 269 266 258 248 240 233 228 220 210 211 212 215 216 223 224 221 222 222 207 133 153 157 162 164 166 172 145 128 133 124 122 115 106 97 93 86 86 92 91 85 82 71 78 109 134 148 153
336 334 330 330 323 321 319 319 317 314 311 310 309 307 306 305 301 298 297 298 297 295 291 289 288 284 280 277 272 265 247 239 228 224 218 215 209 215 225 225 221 220 218 219 203 187 176 174 174 167 168 156 125 120 125 124 125 125 122 114 110 107 107 107 96 83 73 66 78 86 80 80 78 85
335 334 332 329 327 323 323 320 316 313 311 310 310 310 309 308 304 301 301 301 299 296 294 294 293 291 292 290 283 264 244 229 230 224 217 216 214 214 222 222 209 202 204 186 162 160 166 166 166 167 131 110 115 120 128 128 125 122 119 116 112 110 106 101 97 96 89 80 52 84 93 94 96 100